Overview Statistics Trail Chart Weather Telemetry Raw packets
 

This is the latest recevied weather packets stored in our database for station/object WD7OO. If no packets are shown the sender has not sent any weather packets the latest 10 day(s).

<< 36 37 38 39 40 41 42 >>
Time Temp. Humidity Pressure Rain* Wind** Luminosity Snow
1788380010 33.89° C 64% 1014.8 hPa 0 mm - 451 W/m² -
1788379706 33.89° C 66% 1015.1 hPa 0 mm - 222 W/m² -
1788379401 33.89° C 67% 1015.2 hPa 0 mm - 163 W/m² -
1788379096 33.89° C 62% 1015.3 hPa 0 mm - 609 W/m² -
1788378795 33.89° C 62% 1015.3 hPa 0 mm - 252 W/m² -
1788378490 34.44° C 62% 1015.4 hPa 0 mm - 607 W/m² -
1788378185 33.89° C 63% 1015.1 hPa 0 mm - 403 W/m² -
1788377880 33.89° C 65% 1015.6 hPa 0 mm - 658 W/m² -
1788377576 33.33° C 66% 1015.6 hPa 0 mm - 262 W/m² -
1788377274 33.89° C 65% 1015.5 hPa 0 mm - 304 W/m² -
1788376974 35° C 60% 1015.4 hPa 0 mm - 541 W/m² -
1788376673 35° C 62% 1015.3 hPa 0 mm - 310 W/m² -
1788376368 34.44° C 65% 1015.7 hPa 0 mm - 684 W/m² -
1788376064 34.44° C 65% 1015.6 hPa 0 mm - 635 W/m² -
1788375763 33.89° C 64% 1015.7 hPa 0 mm - 592 W/m² -
1788375459 33.33° C 62% 1015.7 hPa 0 mm - 441 W/m² -
1788375155 33.89° C 65% 1015.7 hPa 0 mm - 600 W/m² -
1788374851 33.89° C 61% 1015.7 hPa 0 mm - 439 W/m² -
1788374546 34.44° C 62% 1015.7 hPa 0 mm - 492 W/m² -
1788374241 34.44° C 63% 1015.6 hPa 0 mm - 705 W/m² -
1788373937 34.44° C 65% 1015.5 hPa 0 mm - 717 W/m² -
1788373634 33.89° C 62% 1015.6 hPa 0 mm - 655 W/m² -
1788373330 34.44° C 61% 1015.7 hPa 0 mm - 681 W/m² -
1788373025 34.44° C 64% 1015.9 hPa 0 mm - 646 W/m² -
1788372725 34.44° C 62% 1015.7 hPa 0 mm - 632 W/m² -

* Rain latest hour (hover to see other rain measurements)
** Current wind speed in m/s (hover to see current wind gust speed)